www.pogodaiklimat.ru

Погода и климат >> Архив погоды >> Россия >> Тува >> Сарыг-Сеп


ПОГОДА в Сарыг-Сепе

  • Прогноз погоды в Сарыг-Сепе
  • Монитор погоды в Сарыг-Сепе

АРХИВ ПОГОДЫ в Сарыг-Сепе

Время (UTC), дата Ветер
(напр.,м/с)
 
Видим.   Явления Облачность Т
(С)
Тd
(С)
f
(%)
Тe
(С)
Тes
(С)
Комфортность P
(гПа)
Po
(гПа)
Тmin
(С)
Tmax
(С)
R
(мм)
R24
(мм)
S
(см)
09 10.09 ЮВ 4 50 км 10/8 1000 м
[Sc As trans]
+15.0 +8.7 66 +14 +14 1012.8 932.5
12 10.09 Ю 1 50 км 10/3 1000 м
[Sc As op]
+13.0 +8.9 76 +13 +13 1013.9 933.0 +15.6 0.0
15 10.09 ЮВ 1 10 км 10/0
[As op]
+10.7 +8.8 88 +10 +10 1014.9 933.3
18 10.09 ЮВ 1 10 км 10/0
[As op]
+9.7 +8.4 92 +9 +9 1015.4 933.4
21 10.09 штиль 0 10 км 10/0
[As op]
+9.2 +7.9 92 +8 +8 1015.3 933.2
00 11.09 ЮЗ 1 20 км туман местами 10/3 1000 м
[Cb cap As op]
+9.2 +8.1 93 +8 +8 1015.2 933.2 +8.9
03 11.09 ЮВ 3 500 м туман {ливн. осадки} 10/6 1000 м
[Cb cap As op]
+10.3 +9.2 93 +8 +8 1015.1 933.6
06 11.09 Ю 3 10 км ливневой дождь {туман} 10/10 1000 м
[Cb cap]
+10.5 +8.0 84 +8 +8 1014.4 933.1
09 11.09 ЮВ 2 50 км {ливн. осадки} 10/10 1000 м
[Cb cap]
+11.2 +8.8 85 +10 +10 1014.2 932.8
12 11.09 ЮВ 1 50 км {ливн. осадки} 8/3 1000 м
[Cb cap Ci fib]
+8.6 +6.8 88 +8 +8 1015.7 933.4 +12.6 6
15 11.09 С 1 10 км в посл. час ливневой дождь {гроза} 5/4 1000 м
[Sc Ac trans]
+6.8 +5.5 91 +6 +6 1017.7 934.7
18 11.09 штиль 0 10 км туман местами {гроза, ливн. осадки} 9/0 2000 м
[Ac trans]
+4.0 +3.2 95 +3 +3 1019.1 935.2
21 11.09 З 1 10 км {туман} 6/6 1000 м
[Sc]
+4.7 +3.8 94 +3 +3 1018.4 934.7
00 12.09 Ю 1 10 км туман местами 10/10 1000 м
[Sc]
+5.1 +4.3 95 +4 +4 1018.5 934.9 +3.5 4
03 12.09 С 3 2000 м ливневой дождь 10/10 300 м
[Cb cap]
+6.2 +5.3 94 +3 +3 1020.2 936.8
06 12.09 З 2 50 км {ливн. осадки} 9/9 300 м
[St]
+9.5 +5.2 75 +8 +9 1020.2 937.7
09 12.09 ЮЗ 1 50 км 5/3 1000 м
[Cb cap Ac trans]
+12.4 +3.1 53 +13 +16 1018.2 936.7
12 12.09 ЮВ 2 50 км {ливн. осадки} 9/3 1000 м
[Sc diur, vesp Ac lent Ci]
+7.9 +4.5 79 +6 +6 1020.6 937.7 +13.1 5
15 12.09 ЮВ 2 10 км 8/0 2000 м
[Ac trans]
+2.8 +1.8 93 -0 -0 1023.9 939.2
18 12.09 ЮВ 2 10 км 9/0 2000 м
[Ac trans]
+2.8 +2.0 94 -1 -1 1024.1 939.3
21 12.09 штиль 0 10 км 10/0
[As op]
+2.8 +1.8 93 +2 +2 1024.1 939.4
00 13.09 В 1 50 км 9/3 2000 м
[Sc As trans]
+3.0 +1.7 91 +1 +1 1023.4 938.8 +1.8
03 13.09 ЮЗ 1 50 км 10/0
[As op]
+6.9 +3.3 78 +6 +7 1021.6 938.3
06 13.09 ЮЗ 2 50 км в посл. час морось {дождь} 9/8 1500 м
[Sc Ci fib]
+10.1 +1.9 57 +9 +11 1018.9 936.7
09 13.09 СЗ 2 50 км 8/1 1000 м
[Cu med, cong Ac lent Cs]
+12.4 -1.5 38 +12 +14 1016.5 935.0
12 13.09 ЮВ 3 50 км 9/3 1000 м
[Sc Cs]
+8.2 +2.4 67 +6 +6 1016.9 934.3 +12.5 0.1
15 13.09 Ю 1 10 км 10/0
[As trans]
+5.9 +2.6 79 +5 +5 1017.8 934.5
18 13.09 В 1 10 км в посл. час дождь 10/0
[As trans]
+5.0 +2.8 86 +4 +4 1017.7 934.2
21 13.09 штиль 0 10 км 10/4 1000 м
[Cb cap As op]
+4.6 +2.6 87 +4 +4 1017.4 933.7
00 14.09 штиль 0 4000 м слаб. дождь 10/3 300 м
[St As op]
+4.4 +3.0 91 +3 +3 1018.5 934.7 +4.1 0.3
03 14.09 ЮВ 1 50 км {дождь} 10/6 1000 м
[Sc As trans]
+6.8 +4.5 85 +6 +7 1019.3 936.2
06 14.09 СЗ 2 50 км в посл. час дождь 9/9 1000 м
[Sc]
+11.5 +4.6 63 +11 +11 1017.6 935.9
09 14.09 З 2
{10}
50 км 3/1 1000 м
[Cu med, cong Ac trans]
+15.7 +0.1 35 +16 +19 1015.8 935.3
12 14.09 штиль 0 50 км 10/6 1000 м
[Sc As trans]
+10.6 +2.3 56 +10 +10 1018.2 936.2 +15.7 0.1
15 14.09 штиль 0 10 км 8/8 1000 м
[Sc]
+7.5 +4.4 81 +7 +7 1020.7 937.6
18 14.09 штиль 0 10 км 3/0 2000 м
[Ac trans]
+3.9 +2.5 91 +3 +3 1021.9 937.7
21 14.09 ЮВ 2 10 км ясно +3.5 +2.5 93 0 0 1021.9 937.6
00 15.09 В 1 20 км 8/8 1500 м
[Sc]
+3.5 +2.6 94 +2 +2 1022.7 938.0 +2.6
03 15.09 С 1 50 км 9/8 600 м
[Sc Ci fib]
+9.4 +4.6 72 +9 +10 1020.2 937.8
06 15.09 ЮВ 2 50 км 9/1 1000 м
[Sc As trans]
+15.6 +3.2 43 +16 +19 1016.1 935.6
09 15.09 СЗ 3 50 км 8/3 1000 м
[Cb cap Ci fib]
+17.0 +1.1 34 +17 +19 1014.5 934.4
12 15.09 СЗ 1 50 км 9/8 1000 м
[Sc Ac trans]
+11.5 +5.3 66 +12 +12 1016.3 934.7 +18.0
15 15.09 ЮВ 2 10 км 8/8 1000 м
[Sc]
+8.5 +5.0 79 +7 +7 1018.9 936.3
18 15.09 ЮВ 2 10 км 9/9 1000 м
[Sc]
+6.7 +4.8 88 +4 +4 1019.6 936.4
21 15.09 ЮВ 2 10 км 8/6 1000 м
[Sc Ac trans]
+5.8 +4.1 89 +3 +3 1020.6 937.1
00 16.09 штиль 0 50 км 8/5 1000 м
[Sc Ci fib]
+5.8 +4.1 89 +5 +5 1021.9 938.5 +5.6
03 16.09 ЮВ 2 50 км 8/3 1000 м
[Sc Ac trans Ci fib]
+11.1 +5.3 67 +10 +12 1021.3 939.2
06 16.09 С 2 50 км 8/3 1000 м
[Cu Sc Ac lent]
+16.2 +5.2 48 +16 +19 1019.7 939.1
09 16.09 З 2 50 км 8/8 1000 м
[Cu Sc]
+17.9 +2.1 35 +18 +19 1018.3 938.2
12 16.09 ЮВ 2 50 км ясно +11.3 +6.0 70 +10 +10 1020.8 938.9 +19.1
15 16.09 ЮВ 1 10 км ясно +5.5 +4.0 90 +4 +4 1025.1 941.2
18 16.09 В 2 10 км ясно +4.9 +3.7 92 +2 +2 1026.0 941.7
21 16.09 ЮВ 2 10 км ясно +3.2 +2.3 94 0 0 1026.6 941.8
00 17.09 В 3 20 км туман местами ясно +2.0 +1.2 94 -2 -2 1027.2 942.0 +1.5
03 17.09 ЮВ 5 50 км ясно +12.7 +5.0 59 +11 +14 1023.1 941.3
06 17.09 ЮВ 3 50 км 8/0
[Ci fib]
+18.4 +4.5 40 +19 +25 1019.1 939.1

 

Местоположение метеостанции Сарыг-Сеп (Тува, Россия): широта 51.50 долгота 95.57 высота над уровнем моря 706 м.

В архиве по умолчанию представлена погода в Сарыг-Сепе за последнюю неделю. Архивные данные за месяц целиком и за предыдущие месяцы, начиная с января 2011 года, Вы можете получить, выбрав интересующий диапазон дат из раскрывающегося списка и нажав кнопку "Ввод!".


*Определитесь, кто Вы:
робот инопланетянин человек

Внимание! Время в таблицах - всемирное. Для получения местного времени необходимо прибавить поправку, которая равна 7 ч.

Смотрите также архив погоды в соседних городах и на ближайших метеорологических станциях:

Погода в Кызыле (Тува, Россия) (78 км)
Погода в Сосновке (Тува, Россия) (83 км)
Погода в Тоора-Хем (Тува, Россия) (114 км)
Погода в Хову-Аксы (Тува, Россия) (128 км)
Погода в Туране (Тува, Россия) (133 км)
Погода в Эрзине (Тува, Россия) (140 км)
Погода в Кунгур-Туке (Алтай, Россия) (169 км)
Погода в Нижнеусинском (Красноярский край, Россия) (195 км)
Погода в Шагонаре (Тува, Россия) (197 км)
Погода в Тэсе (Монголия) (206 км)

Пояснения к столбцам:

Ветер - указаны скорость ветра в м/с - средняя за 10 мин, порывы в срок и между сроками (в фигурных скобках) и направление, откуда дует ветер: С - северный, СВ - северо-восточный, В - восточный, ЮВ - юго-восточный, Ю - южный, ЮЗ - юго-западный, З - западный, СЗ - северо-западный.
Видимость - горизонтальная дальность видимости в метрах или километрах. При видимости от 1 до 10 км при отсутствии осадков обычно наблюдается дымка, при ухудшении видимости до 1 км и менее - туман. В сухую погоду видимость может ухудшаться дымом, пылью или мглою.
Явления - указаны атмосферные явления, наблюдавшиеся в срок или в последний час перед сроком; фигурными скобками обозначены явления, наблюдавшиеся между сроками (за 1-3 часа до срока); квадратными скобками обозначены град или гололедные отложения с указанием их диаметра в мм.
Облачность - указаны через наклонную черту общая и нижняя облачность в баллах и высота нижней границы облаков в метрах; квадратными скобками обозначены формы облаков: Ci - перистые, Cs - перисто-слоистые, Cc - перисто-кучевые, Ac - высококучевые, As - высокослоистые, Sc - слоисто-кучевые, Ns - слоисто-дождевые, Cu - кучевые, Cb - кучево-дождевые. Подробнее классификацию облаков см. в Атласе облаков (PDF).
T - Температура воздуха - температура, измеренная на высоте 2 м над землей.
Td - Температура точки росы - температура, при понижении до которой содержащийся в воздухе водяной пар достигнет насыщения.
f - Относительная влажность воздуха - влажноcть воздуха, измеренная на высоте 2 м над землей.
Te - Эффективная температура - температура, которую ощущает одетый по сезону человек в тени. Характеристика душности погоды. При расчете учитывается влияние влажности воздуха и скорости ветра на теплоощущения человека.
Tes - Эффективная температура на солнце - температура, которую ощущает человек, с поправкой на солнечный нагрев. Характеристика знойности погоды. Зависит от высоты солнца над горизонтом, облачности и скорости ветра. Ночью, в пасмурную погоду, а также при ветре 12 м/с и более поправка равна нулю.
P - Атмосферное давление - приведенное к уровню моря атмосферное давление.
Po - Атмосферное давление - измеренное на уровне метеостанции атмосферное давление.
Tmin - Минимальная температура - минимум температуры воздуха на высоте 2 м над землей.
Tmax - Максимальная температура - максимум температуры воздуха на высоте 2 м над землей.
R - Количество осадков - Количество выпавших осадков за период времени, мм. При наведении курсора мыши на число - период времени, за который выпало указанное количество осадков.
R24 - Количество осадков - Количество выпавших осадков за 24 часа, мм.
S - Снежный покров - Высота снежного покрова, см. При наведении курсора мыши на число - состояние снежного покрова и степень покрытия местности в баллах.